Location: Newark
(60.5925°N, 45.5911°E)
Time: 03:28:33
(UTC+00:00)

Envisat - Pass Details

Date: 20 September 2019
Orbit: 764 x 766 km, 98.1° (Epoch: 17 October)

Event Time Altitude Azimuth Distance (km) Brightness Sun altitude
Rises 16:06:49 0° 203° (SSW) 3,228 6.3 -8.3°
Reaches altitude 10° 16:09:31 10° 217° (SW) 2,306 5.7 -8.6°
Maximum altitude 16:13:39 25° 271° (W) 1,529 5.6 -9.1°
Drops below altitude 10° 16:17:49 10° 326° (NW) 2,319 6.4 -9.5°
Sets 16:20:34 0° 340° (NNW) 3,250 6.9 -9.9°
